Weather History for Oxford, CT

Change the Weather History Date:

Friday, February 10, 2012

  Actual Average Record
Temperature  
Mean Temperature 34 °F -  
Max Temperature 44 °F 34 °F 51 °F (2001)
Min Temperature 24 °F 19 °F 3 °F (2013)
Degree Days  
Heating Degree Days 31    
Moisture  
Dew Point 18 °F    
Average Humidity 55    
Maximum Humidity 74    
Minimum Humidity 34    
Precipitation  
Precipitation 0.00 in - - ()
Sea Level Pressure  
Sea Level Pressure 30.05 in    
Wind  
Wind Speed 3 mph (WSW)    
Max Wind Speed 9 mph    
Max Gust Speed 18 mph    
Visibility 10 miles    
Events      
Averages and records for this station are not official NWS values.
T = Trace of Precipitation, MM = Missing Value Source: NWS Daily Summary

Daily Weather History Graph

Daily Weather History Graph

Search for Another Location

Airport:

Trip Planner

Search our weather history database for the weather conditions in past years. The results will help you decide how hot, cold, wet, or windy it might be!

Date:

Astronomy

Feb. 10, 2012 Rise Set
Actual Time 6:54 AM EST 5:19 PM EST
Civil Twilight 6:26 AM EST 5:48 PM EST
Nautical Twilight 5:53 AM EST 6:20 PM EST
Astronomical Twilight 5:21 AM EST 6:53 PM EST
Moon 8:57 PM EST (2/10) 7:58 AM EST (2/10)
Length of Visible Light 11h 22m
Length of Day
10h 24m
Waning Gibbous, 90% of the Moon is Illuminated
Feb 10
Waning Gibbous
Feb 14
Last Quarter
Feb 21
New
Feb 29
First Quarter
Mar 8
Full

Hourly Weather History & Observations

Time (EST) Temp. Windchill Dew Point Humidity Pressure Visibility Wind Dir Wind Speed Gust Speed Precip Events Conditions
12:15 AM 30.2 °F 26.7 °F 14.0 °F 51% 30.13 in 10.0 mi WNW 3.5 mph - N/A   Clear
12:35 AM 32.0 °F - 15.8 °F 51% 30.12 in 10.0 mi Calm Calm - N/A   Clear
12:55 AM 28.4 °F - 14.0 °F 55% 30.12 in 10.0 mi Calm Calm - N/A   Clear
1:35 AM 26.6 °F - 14.0 °F 59% 30.12 in 10.0 mi Calm Calm - N/A   Clear
1:55 AM 28.4 °F - 15.8 °F 59% 30.13 in 10.0 mi Calm Calm - N/A   Clear
2:15 AM 28.4 °F - 15.8 °F 59% 30.12 in 10.0 mi Calm Calm - N/A   Clear
2:35 AM 26.6 °F - 14.0 °F 59% 30.12 in 10.0 mi Calm Calm - N/A   Clear
2:55 AM 26.6 °F - 14.0 °F 59% 30.12 in 10.0 mi Calm Calm - N/A   Clear
3:15 AM 28.4 °F 24.6 °F 17.6 °F 64% 30.12 in 10.0 mi WNW 3.5 mph - N/A   Clear
3:55 AM 28.4 °F - 17.6 °F 64% 30.12 in 10.0 mi Calm Calm - N/A   Partly Cloudy
4:15 AM 26.6 °F - 15.8 °F 64% 30.12 in 10.0 mi Calm Calm - N/A   Partly Cloudy
4:35 AM 26.6 °F - 15.8 °F 64% 30.11 in 10.0 mi Calm Calm - N/A   Mostly Cloudy
4:55 AM 26.6 °F - 17.6 °F 69% 30.10 in 10.0 mi Calm Calm - N/A   Mostly Cloudy
5:15 AM 26.6 °F - 17.6 °F 69% 30.09 in 10.0 mi Calm Calm - N/A   Mostly Cloudy
5:35 AM 28.4 °F - 17.6 °F 64% 30.10 in 10.0 mi Calm Calm - N/A   Mostly Cloudy
6:45 AM 24.8 °F 20.5 °F 17.6 °F 74% 30.10 in 10.0 mi SW 3.5 mph - N/A   Partly Cloudy
7:45 AM 26.6 °F 21.2 °F 17.6 °F 69% 30.12 in 10.0 mi West 4.6 mph - N/A   Clear
8:45 AM 32.0 °F 26.4 °F 19.4 °F 60% 30.12 in 10.0 mi West 5.8 mph - N/A   Clear
9:45 AM 35.6 °F 29.9 °F 19.4 °F 52% 30.12 in 10.0 mi WNW 6.9 mph - N/A   Clear
10:45 AM 37.4 °F 32.1 °F 19.4 °F 48% 30.10 in 10.0 mi West 6.9 mph - N/A   Clear
11:45 AM 42.8 °F 37.5 °F 17.6 °F 36% 30.07 in 10.0 mi West 9.2 mph - N/A   Clear
12:45 PM 44.6 °F 40.2 °F 17.6 °F 34% 30.04 in 10.0 mi WSW 8.1 mph 16.1 mph N/A   Partly Cloudy
1:45 PM 42.8 °F 36.2 °F 19.4 °F 39% 30.01 in 10.0 mi SW 12.7 mph 19.6 mph N/A   Scattered Clouds
2:45 PM 42.8 °F 37.5 °F 19.4 °F 39% 29.99 in 10.0 mi SSW 9.2 mph 18.4 mph N/A   Clear
3:45 PM 42.8 °F 37.5 °F 19.4 °F 39% 29.98 in 10.0 mi SSW 9.2 mph 17.3 mph N/A   Clear
4:45 PM 41.0 °F 35.2 °F 19.4 °F 42% 29.97 in 10.0 mi WSW 9.2 mph 17.3 mph N/A   Clear
5:45 PM 37.4 °F 32.1 °F 19.4 °F 48% 29.97 in 10.0 mi SW 6.9 mph - N/A   Clear
6:50 PM 37.4 °F 32.8 °F 19.4 °F 48% 29.97 in 10.0 mi SW 5.8 mph - N/A   Clear
7:55 PM 35.6 °F 30.7 °F 21.2 °F 56% 29.96 in 10.0 mi SW 5.8 mph - N/A   Clear
9:15 PM 37.4 °F 34.9 °F 21.2 °F 52% 29.93 in 10.0 mi WSW 3.5 mph - N/A   Overcast
9:35 PM 37.4 °F 32.1 °F 19.4 °F 48% 29.93 in 10.0 mi WSW 6.9 mph - N/A   Overcast
9:55 PM 37.4 °F 31.4 °F 19.4 °F 48% 29.93 in 10.0 mi WSW 8.1 mph - N/A   Overcast
10:15 PM 37.4 °F 32.1 °F 19.4 °F 48% 29.93 in 10.0 mi WSW 6.9 mph - N/A   Overcast
10:35 PM 35.6 °F 31.7 °F 21.2 °F 56% 29.93 in 10.0 mi WSW 4.6 mph - N/A   Overcast
10:55 PM 35.6 °F 31.7 °F 21.2 °F 56% 29.92 in 10.0 mi SW 4.6 mph - N/A   Overcast
11:15 PM 35.6 °F 30.7 °F 21.2 °F 56% 29.92 in 10.0 mi WSW 5.8 mph - N/A   Overcast
11:35 PM 35.6 °F 29.2 °F 21.2 °F 56% 29.92 in 10.0 mi WSW 8.1 mph - N/A   Overcast
11:55 PM 35.6 °F 32.8 °F 21.2 °F 56% 29.92 in 10.0 mi WSW 3.5 mph - N/A   Overcast